GW2089 Weather Reports


Display with metric or nautical units.
time (UTC)temp
F
wind
direction
speed
MPH
gust
MPH
rain 1hr
in
rain 24hr
in
rain mn
in
humidity
%
barometer
mb
20260507060644 43 4 0.0 0.0 0.00 0.02 0.02 90 1009.2
20260507060140 43 27 1.0 2.0 0.00 0.02 0.02 90 1009.3
20260507055635 43 357 0.0 0.0 0.00 0.02 0.02 90 1009.3
20260507055132 43 24 1.0 1.0 0.00 0.02 0.02 90 1009.3
20260507054628 43 45 1.0 2.0 0.00 0.02 0.02 90 1009.4
20260507054125 43 64 0.0 0.0 0.07 0.02 0.02 90 1009.5
20260507053623 43 337 0.0 0.0 0.07 0.02 0.02 90 1009.6
20260507053121 43 7 0.0 0.0 0.00 0.01 0.01 90 1009.5
20260507052619 43 6 0.0 0.0 0.00 0.01 0.01 89 1009.6
20260507052115 43 282 0.0 0.0 0.00 0.01 0.01 90 1009.5
20260507051613 43 48 1.0 2.0 0.00 0.01 0.01 89 1009.4
20260507051109 43 15 1.0 1.0 0.00 0.01 0.01 89 1009.3
20260507050606 43 18 2.0 2.0 0.00 0.01 0.01 89 1009.0
20260507045559 44 59 1.0 2.0 0.00 0.01 0.01 86 1009.3
20260507045056 44 57 1.0 1.0 0.00 0.01 0.01 85 1009.4
20260507044553 44 15 0.0 1.0 0.00 0.01 0.01 85 1009.2
20260507044050 44 358 0.0 0.0 0.00 0.01 0.01 86 1009.2
20260507043545 44 19 1.0 1.0 0.00 0.01 0.01 86 1009.2
20260507043043 44 0 1.0 2.0 0.00 0.01 0.01 85 1009.2
20260507042539 44 24 0.0 1.0 0.00 0.01 0.01 86 1009.3
20260507042034 44 17 2.0 2.0 0.00 0.01 0.01 86 1009.3
20260507041532 44 55 0.0 1.0 0.00 0.01 0.01 86 1009.1
20260507041029 44 9 1.0 2.0 0.00 0.01 0.01 86 1008.9
20260507040525 44 19 1.0 1.0 0.00 0.01 0.01 86 1009.0
20260507040021 44 347 0.0 0.0 0.00 0.01 0.01 86 1009.0
20260507035518 44 353 0.0 0.0 0.00 0.01 0.01 86 1009.0
20260507035014 44 359 0.0 0.0 0.00 0.01 0.01 86 1008.8
20260507034511 43 11 0.0 1.0 0.00 0.01 0.01 86 1008.7
20260507034009 43 35 2.0 2.0 0.00 0.01 0.01 86 1008.8
20260507033507 44 22 0.0 0.0 0.00 0.01 0.01 86 1008.7
20260507033004 43 17 0.0 1.0 0.00 0.01 0.01 85 1008.7
20260507032500 43 33 1.0 1.0 0.00 0.01 0.01 86 1008.5
20260507031956 43 352 0.0 1.0 0.00 0.01 0.01 85 1008.3
20260507031453 43 11 1.0 2.0 0.00 0.01 0.01 85 1008.2
20260507030950 43 20 1.0 3.0 0.00 0.01 0.01 86 1008.3
20260507030447 43 22 1.0 1.0 0.00 0.01 0.01 86 1008.5
20260507025944 43 356 0.0 0.0 0.00 0.01 0.01 85 1008.3
20260507025441 43 317 1.0 2.0 0.00 0.01 0.01 85 1008.6
20260507024939 43 2 1.0 2.0 0.00 0.01 0.01 86 1008.5
20260507024436 43 50 1.0 2.0 0.00 0.01 0.01 86 1008.5
20260507023932 43 53 0.0 1.0 0.00 0.01 0.01 86 1008.6
20260507023429 43 5 0.0 1.0 0.00 0.01 0.01 86 1008.7
20260507022926 43 25 0.0 0.0 0.00 0.01 0.01 86 1008.5
20260507022423 43 358 0.0 0.0 0.00 0.01 0.01 86 1008.4
20260507021919 43 34 3.0 3.0 0.00 0.01 0.01 86 1008.8
20260507021414 43 340 0.0 1.0 0.00 0.01 0.01 86 1008.8
20260507020912 43 9 1.0 2.0 0.00 0.01 0.01 86 1009.0
20260507020408 43 31 0.0 1.0 0.00 0.01 0.01 86 1008.9
20260507015905 43 33 0.0 0.0 0.00 0.01 0.01 86 1008.9
20260507015403 43 358 0.0 0.0 0.00 0.01 0.01 86 1009.1
20260507014900 43 19 0.0 1.0 0.00 0.01 0.01 86 1009.1
20260507014356 43 340 0.0 0.0 0.00 0.01 0.01 87 1008.7
20260507013853 43 33 1.0 1.0 0.00 0.01 0.01 87 1008.8
20260507013350 43 50 0.0 0.0 0.00 0.01 0.01 87 1008.6
20260507012848 43 24 0.0 0.0 0.00 0.01 0.01 87 1008.5
20260507012343 43 321 1.0 2.0 0.00 0.01 0.01 87 1008.5
20260507011841 43 345 0.0 1.0 0.00 0.01 0.01 88 1008.7
20260507011338 43 345 0.0 0.0 0.00 0.01 0.01 88 1008.7
20260507010832 43 11 0.0 1.0 0.00 0.01 0.01 88 1008.6
20260507010328 43 4 1.0 1.0 0.00 0.01 0.01 88 1008.4
20260507005825 43 354 0.0 0.0 0.00 0.01 0.01 89 1008.2
20260507005322 43 351 0.0 0.0 0.00 0.01 0.01 88 1008.5
20260507004819 43 7 0.0 0.0 0.00 0.01 0.01 88 1008.3
20260507004316 43 349 0.0 0.0 0.00 0.01 0.01 88 1008.4
20260507003813 43 1 0.0 0.0 0.00 0.01 0.01 88 1008.4
20260507003308 43 11 0.0 0.0 0.00 0.01 0.01 87 1008.5
20260507002803 44 34 0.0 0.0 0.00 0.01 0.01 87 1008.4
20260507002300 44 357 0.0 0.0 0.00 0.01 0.01 86 1008.3
20260507001757 44 71 2.0 2.0 0.00 0.01 0.01 86 1008.5
20260507001254 44 23 0.0 1.0 0.00 0.01 0.01 86 1008.7
20260507000750 44 24 1.0 2.0 0.00 0.01 0.01 86 1008.9
20260507000246 44 32 1.0 1.0 0.00 0.01 0.01 86 1008.7
20260506235743 44 21 0.0 1.0 0.00 0.01 0.01 87 1008.7
20260506235238 44 4 1.0 2.0 0.00 0.01 0.01 86 1008.7
20260506234736 44 51 2.0 2.0 0.00 0.01 0.01 87 1008.6
20260506234233 44 22 0.0 0.0 0.00 0.01 0.01 87 1008.7
20260506233730 44 3 0.0 0.0 0.00 0.01 0.01 87 1008.9
20260506233227 44 14 1.0 1.0 0.00 0.01 0.01 87 1008.9
20260506232724 44 350 0.0 0.0 0.00 0.01 0.01 87 1008.9
20260506232218 44 353 0.0 0.0 0.00 0.01 0.01 88 1008.4
20260506231716 44 19 1.0 1.0 0.00 0.01 0.01 88 1008.4
20260506231214 44 54 1.0 1.0 0.00 0.01 0.01 88 1008.3
20260506230710 44 32 0.0 0.0 0.00 0.01 0.01 89 1008.4
20260506230208 44 23 2.0 2.0 0.00 0.01 0.01 89 1008.4
20260506225704 43 4 0.0 1.0 0.00 0.01 0.01 90 1008.8
20260506225201 43 8 0.0 0.0 0.00 0.01 0.01 91 1008.8
20260506224657 43 2 0.0 0.0 0.00 0.01 0.01 91 1008.8
20260506224154 43 27 1.0 2.0 0.00 0.01 0.01 92 1008.9
20260506223650 43 15 0.0 0.0 0.00 0.01 0.01 92 1008.9
20260506223146 43 7 0.0 0.0 0.00 0.01 0.01 92 1008.6
20260506222643 43 11 0.0 0.0 0.00 0.01 0.01 92 1008.9
20260506222139 43 357 0.0 0.0 0.00 0.01 0.01 92 1009.1
20260506221637 43 347 0.0 1.0 0.00 0.01 0.01 92 1008.9
20260506221135 43 354 1.0 2.0 0.00 0.01 0.01 92 1009.1
20260506220632 43 39 0.0 1.0 0.00 0.01 0.01 92 1009.0
20260506220127 43 0 0.0 0.0 0.00 0.01 0.01 91 1008.9
20260506215624 43 3 0.0 0.0 0.00 0.01 0.01 91 1008.9
20260506215119 43 15 0.0 0.0 0.00 0.01 0.01 91 1008.8
20260506214616 43 67 1.0 2.0 0.00 0.01 0.01 91 1009.0
20260506214114 43 13 0.0 0.0 0.00 0.01 0.01 91 1008.9
20260506213612 43 342 0.0 0.0 0.00 0.01 0.01 91 1009.0
20260506213108 43 29 3.0 3.0 0.00 0.01 0.01 91 1008.8
20260506212606 43 31 0.0 1.0 0.00 0.01 0.01 91 1008.6
20260506212101 43 26 1.0 1.0 0.00 0.01 0.01 91 1008.6
20260506211557 43 33 2.0 3.0 0.05 0.01 0.01 91 1008.8
20260506211054 43 13 0.0 0.0 0.05 0.01 0.01 91 1008.8
20260506210550 44 25 0.0 0.0 0.00 0.00 0.00 91 1008.8
20260506210047 44 31 0.0 1.0 0.00 0.00 0.00 91 1008.9
20260506205543 44 358 0.0 1.0 0.00 0.25 0.25 90 1008.8
20260506205039 44 26 0.0 0.0 0.00 0.25 0.25 90 1008.9
20260506204537 44 6 0.0 0.0 0.00 0.25 0.25 91 1009.1
20260506204034 44 34 1.0 2.0 0.00 0.25 0.25 90 1009.2
20260506203532 43 20 1.0 2.0 0.00 0.25 0.25 91 1009.2
20260506203028 43 20 0.0 1.0 0.00 0.25 0.25 91 1009.1
20260506202526 43 6 1.0 1.0 0.00 0.25 0.25 91 1009.2
20260506202022 43 29 1.0 1.0 0.00 0.25 0.25 92 1009.1
20260506201520 43 45 0.0 1.0 0.00 0.25 0.25 92 1009.0
20260506201016 43 356 0.0 0.0 0.00 0.25 0.25 92 1009.0
20260506200512 43 6 1.0 1.0 0.00 0.25 0.25 92 1009.3
20260506200010 43 356 0.0 0.0 0.00 0.25 0.25 92 1009.3
20260506195507 43 3 0.0 0.0 0.00 0.25 0.25 92 1009.6
20260506195003 43 18 1.0 1.0 0.00 0.25 0.25 92 1009.5
20260506194500 43 40 1.0 2.0 0.00 0.25 0.25 92 1009.6
20260506193956 43 18 0.0 1.0 0.00 0.25 0.25 92 1009.6
20260506193454 43 36 1.0 3.0 0.00 0.25 0.25 92 1009.5
20260506192950 43 52 1.0 1.0 0.00 0.25 0.25 93 1009.5
20260506192448 43 28 0.0 0.0 0.00 0.25 0.25 93 1009.7
20260506191944 43 35 1.0 1.0 0.00 0.25 0.25 93 1009.6
20260506191441 43 4 1.0 1.0 0.00 0.25 0.25 93 1009.6
20260506190937 43 314 1.0 1.0 0.00 0.25 0.25 93 1009.6
20260506190434 43 25 1.0 1.0 0.00 0.25 0.25 93 1009.6
20260506185931 43 15 0.0 1.0 0.00 0.25 0.25 93 1009.7
20260506185428 43 43 0.0 0.0 0.07 0.25 0.25 93 1009.8
20260506184925 43 29 0.0 1.0 0.07 0.25 0.25 93 1009.6
20260506184422 43 1 0.0 0.0 0.00 0.24 0.24 93 1010.0
20260506183919 43 354 0.0 0.0 0.00 0.24 0.24 93 1009.9
20260506183414 43 11 0.0 0.0 0.00 0.24 0.24 93 1009.8
20260506182912 43 13 1.0 2.0 0.00 0.24 0.24 93 1009.8
20260506182409 44 3 1.0 1.0 0.00 0.24 0.24 93 1009.8
20260506181906 44 9 0.0 0.0 0.05 0.24 0.24 93 1009.7
20260506181404 44 355 0.0 0.0 0.05 0.24 0.24 93 1009.7
20260506180901 44 20 1.0 1.0 0.00 0.23 0.23 93 1009.6
20260506180357 44 351 0.0 0.0 0.00 0.23 0.23 93 1009.5
20260506175854 44 25 0.0 1.0 0.07 0.23 0.23 93 1009.5
20260506175350 44 25 1.0 1.0 0.07 0.23 0.23 93 1009.6
20260506174847 44 19 0.0 0.0 0.00 0.22 0.22 92 1009.7
20260506174345 44 22 2.0 2.0 0.07 0.22 0.22 92 1009.8
20260506173843 44 30 0.0 1.0 0.07 0.22 0.22 92 1009.6
20260506173339 44 18 0.0 1.0 0.05 0.21 0.21 92 1009.8
20260506172836 44 337 0.0 0.0 0.05 0.21 0.21 92 1009.8
20260506172333 44 340 0.0 0.0 0.07 0.20 0.20 92 1010.0
20260506171830 44 335 0.0 0.0 0.12 0.20 0.20 91 1010.0
20260506171327 44 335 0.0 0.0 0.12 0.19 0.19 91 1010.1
20260506170825 44 309 0.0 0.0 0.12 0.18 0.18 90 1010.0
20260506170320 44 334 0.0 0.0 0.05 0.17 0.17 90 1010.0
20260506165820 44 347 0.0 0.0 0.07 0.16 0.16 89 1010.1
20260506165317 44 340 0.0 0.0 0.12 0.16 0.16 90 1009.9
20260506164813 44 351 1.0 1.0 0.05 0.15 0.15 89 1009.8
20260506164310 44 349 0.0 0.0 0.12 0.15 0.15 88 1009.9
20260506163807 44 24 0.0 0.0 0.07 0.14 0.14 87 1009.5
20260506163302 44 5 0.0 0.0 0.05 0.13 0.13 87 1009.7
20260506162758 44 25 0.0 1.0 0.12 0.13 0.13 86 1009.9
20260506162256 44 347 0.0 0.0 0.12 0.12 0.12 88 1009.9
20260506161753 45 352 0.0 0.0 0.12 0.11 0.11 86 1010.2
20260506161250 45 338 0.0 0.0 0.14 0.10 0.10 85 1010.3
20260506160748 44 44 1.0 2.0 0.12 0.09 0.09 86 1010.3
20260506160244 44 338 0.0 0.0 0.12 0.08 0.08 86 1010.2
20260506155743 44 328 0.0 0.0 0.12 0.07 0.07 85 1010.3
20260506155239 44 351 0.0 0.0 0.12 0.06 0.06 83 1010.1
20260506153352 46 5 1.0 2.0 0.12 0.02 0.02 71 1010.6
20260506152849 47 358 1.0 1.0 0.07 0.01 0.01 68 1010.6
20260506152346 47 309 0.0 0.0 0.00 0.00 0.00 62 1010.6
20260506151845 48 308 0.0 0.0 0.00 0.00 0.00 59 1010.4
20260506151341 48 348 0.0 0.0 0.00 0.00 0.00 53 1010.3
20260506150839 48 17 0.0 0.0 0.00 0.00 0.00 47 1010.1
20260506150335 49 11 0.0 0.0 0.00 0.00 0.00 46 1009.8
20260506145832 49 359 0.0 0.0 0.00 0.00 0.00 44 1009.9
20260506145328 50 3 1.0 2.0 0.00 0.00 0.00 40 1010.0
20260506144826 50 302 0.0 0.0 0.00 0.00 0.00 41 1010.2
20260506144322 50 60 1.0 1.0 0.00 0.00 0.00 37 1010.0
20260506143821 50 339 0.0 0.0 0.00 0.00 0.00 36 1010.0
20260506143317 50 34 0.0 1.0 0.00 0.00 0.00 36 1010.1
20260506142816 50 45 2.0 2.0 0.00 0.00 0.00 36 1009.6
20260506142313 50 15 0.0 1.0 0.00 0.00 0.00 35 1009.8
20260506141812 50 301 2.0 5.0 0.00 0.00 0.00 37 1009.6
20260506141309 50 17 0.0 0.0 0.00 0.00 0.00 37 1009.3
20260506140807 51 353 1.0 1.0 0.00 0.00 0.00 38 1009.3
20260506140303 51 236 0.0 1.0 0.00 0.00 0.00 40 1009.3
20260506135801 50 11 1.0 2.0 0.00 0.00 0.00 40 1009.3
20260506135257 51 8 1.0 1.0 0.00 0.00 0.00 39 1009.1
20260506134754 51 54 0.0 1.0 0.00 0.00 0.00 40 1009.5
20260506134250 51 13 1.0 1.0 0.00 0.00 0.00 42 1009.8
20260506133747 51 18 0.0 1.0 0.00 0.00 0.00 42 1009.5
20260506133244 51 335 0.0 0.0 0.00 0.00 0.00 42 1009.6
20260506132741 51 253 1.0 3.0 0.00 0.00 0.00 44 1009.7
20260506132238 51 72 0.0 0.0 0.00 0.00 0.00 45 1009.7
20260506131736 51 359 1.0 1.0 0.00 0.00 0.00 48 1009.8
20260506131231 52 33 2.0 2.0 0.00 0.00 0.00 46 1009.7
20260506130729 52 338 0.0 0.0 0.00 0.00 0.00 46 1010.1
20260506130225 52 26 0.0 0.0 0.00 0.00 0.00 45 1010.2
20260506125724 52 16 2.0 5.0 0.00 0.00 0.00 45 1010.4
20260506125221 52 351 0.0 0.0 0.00 0.00 0.00 45 1010.2
20260506124719 52 291 0.0 1.0 0.00 0.00 0.00 46 1010.0
20260506124217 52 348 1.0 1.0 0.00 0.00 0.00 44 1010.2
20260506123714 53 87 2.0 2.0 0.00 0.00 0.00 43 1010.4
20260506123213 53 250 1.0 1.0 0.00 0.00 0.00 42 1010.5
20260506122709 53 197 1.0 2.0 0.00 0.00 0.00 43 1010.9
20260506122207 54 6 0.0 1.0 0.00 0.00 0.00 43 1010.7
20260506121704 53 342 1.0 1.0 0.00 0.00 0.00 42 1010.9
20260506121200 54 122 0.0 0.0 0.00 0.00 0.00 41 1011.0
20260506120658 55 348 0.0 0.0 0.00 0.00 0.00 40 1011.0
20260506120156 55 355 0.0 1.0 0.00 0.00 0.00 41 1010.8
20260506115654 56 8 2.0 2.0 0.00 0.00 0.00 40 1010.9
20260506115152 56 12 0.0 0.0 0.00 0.00 0.00 42 1010.8
20260506114649 57 337 0.0 0.0 0.00 0.00 0.00 41 1010.7
20260506114146 58 336 0.0 1.0 0.00 0.00 0.00 40 1010.7
20260506113645 57 43 5.0 9.0 0.00 0.00 0.00 42 1010.9
20260506113142 57 271 1.0 1.0 0.00 0.00 0.00 43 1011.0
20260506112637 57 220 1.0 2.0 0.00 0.00 0.00 42 1010.7
20260506112136 57 129 1.0 2.0 0.00 0.00 0.00 43 1010.8
20260506111633 57 1 1.0 1.0 0.00 0.00 0.00 42 1010.8
20260506111131 57 44 1.0 1.0 0.00 0.00 0.00 42 1010.6
20260506110628 58 354 0.0 0.0 0.00 0.00 0.00 40 1010.5
20260506110125 59 1 2.0 3.0 0.00 0.00 0.00 39 1010.8
20260506105622 58 332 0.0 0.0 0.00 0.00 0.00 40 1010.6
20260506105119 57 26 1.0 2.0 0.00 0.00 0.00 41 1010.4
20260506104617 57 66 1.0 2.0 0.00 0.00 0.00 41 1010.7
20260506104114 57 11 3.0 3.0 0.00 0.00 0.00 39 1010.7
20260506103611 57 24 0.0 1.0 0.00 0.00 0.00 41 1010.5
20260506103108 58 310 1.0 1.0 0.00 0.00 0.00 40 1010.6
20260506102606 57 350 1.0 1.0 0.00 0.00 0.00 41 1010.6
20260506102103 57 25 1.0 1.0 0.00 0.00 0.00 39 1010.7
20260506101600 57 355 1.0 1.0 0.00 0.00 0.00 40 1010.6
20260506101057 57 289 0.0 0.0 0.00 0.00 0.00 40 1010.8
20260506100555 57 353 0.0 0.0 0.00 0.00 0.00 39 1010.8
20260506100053 57 236 2.0 3.0 0.00 0.00 0.00 38 1011.0
20260506095551 58 353 0.0 1.0 0.00 0.00 0.00 38 1010.7
20260506095048 58 45 0.0 0.0 0.00 0.00 0.00 38 1010.9
20260506094545 58 71 0.0 0.0 0.00 0.00 0.00 37 1010.7
20260506094043 58 69 0.0 1.0 0.00 0.00 0.00 38 1010.8
20260506093541 57 90 1.0 1.0 0.00 0.00 0.00 39 1010.9
20260506093038 57 5 0.0 0.0 0.00 0.00 0.00 40 1010.7
20260506092536 56 27 0.0 1.0 0.00 0.00 0.00 40 1010.9
20260506092033 56 44 2.0 3.0 0.00 0.00 0.00 39 1011.2
20260506091531 56 16 0.0 1.0 0.00 0.00 0.00 40 1010.9
20260506091028 56 301 1.0 2.0 0.00 0.00 0.00 41 1011.1
20260506090526 56 298 1.0 1.0 0.00 0.00 0.00 41 1011.1
20260506090022 56 28 0.0 1.0 0.00 0.00 0.00 41 1011.1
20260506085519 56 304 1.0 1.0 0.00 0.00 0.00 41 1011.2
20260506085015 56 345 0.0 0.0 0.00 0.00 0.00 43 1011.3
20260506084512 55 44 1.0 2.0 0.00 0.00 0.00 38 1011.3
20260506084008 56 3 0.0 1.0 0.00 0.00 0.00 38 1011.5
20260506083506 56 73 1.0 2.0 0.00 0.00 0.00 42 1011.4
20260506083003 55 0 1.0 1.0 0.00 0.00 0.00 40 1011.3
20260506082500 55 73 0.0 1.0 0.00 0.00 0.00 41 1011.1
20260506081955 54 33 3.0 3.0 0.00 0.00 0.00 42 1011.5
20260506081454 55 22 2.0 2.0 0.00 0.00 0.00 40 1011.4
20260506080951 54 3 0.0 0.0 0.00 0.00 0.00 43 1011.4
20260506080448 55 41 0.0 0.0 0.00 0.00 0.00 43 1011.4
20260506073431 54 344 0.0 0.0 0.00 0.00 0.00 45 1011.4
20260506072929 53 359 2.0 2.0 0.00 0.00 0.00 46 1011.6
20260506072426 53 358 0.0 1.0 0.00 0.00 0.00 46 1011.6
20260506071924 53 97 2.0 5.0 0.00 0.00 0.00 46 1011.4
20260506071422 53 1 0.0 1.0 0.00 0.00 0.00 47 1011.4
20260506070918 53 313 0.0 0.0 0.00 0.00 0.00 47 1011.4
20260506070415 52 89 1.0 1.0 0.00 0.00 0.00 50 1011.7
20260506062352 52 60 0.0 1.0 0.00 0.00 0.00 57 1011.3
20260506061848 52 251 0.0 0.0 0.00 0.00 0.00 56 1011.3
20260506061345 51 342 0.0 0.0 0.00 0.00 0.00 58 1011.6
20260506060843 51 359 1.0 2.0 0.00 0.00 0.00 56 1011.4